{"data":{"norad_id":85217,"epoch":"2026-05-23T04:40:42.554208Z","epoch_age_seconds":230731,"freshness":"STALE","line1":"1 85217U          26143.19493697  .00000851  00000+0  23264-3 0  9990","line2":"2 85217  98.0235 232.0511 0205420   0.5131 359.6231 14.38015101651059","mean_motion":14.38015101,"eccentricity":0.020542,"inclination_deg":98.0235,"raan_deg":232.0511,"arg_perigee_deg":0.5131,"mean_anomaly_deg":359.6231,"bstar":0.00023264,"rev_number":65105,"period_min":100.13803046982,"perigee_km":618.32846314646,"apogee_km":911.79973714485,"semimajor_km":7143.2011001457,"source":"CELESTRAK","updated_at":"2026-05-25T13:38:11.431645Z"}}